Year,Month,Day,Hour,Minute,Value (Times are PST for temperature in C)
2013,05,04,00,00,8.80
2013,05,04,00,01,8.80
2013,05,04,00,02,8.80
2013,05,04,00,03,8.70
2013,05,04,00,04,8.70
2013,05,04,00,05,8.70
2013,05,04,00,06,8.70
2013,05,04,00,07,8.70
2013,05,04,00,08,8.70
2013,05,04,00,09,8.70
2013,05,04,00,10,8.70
2013,05,04,00,11,8.70
2013,05,04,00,12,8.70
2013,05,04,00,13,8.70
2013,05,04,00,14,8.70
2013,05,04,00,15,8.70
2013,05,04,00,16,8.70
2013,05,04,00,17,8.70
2013,05,04,00,18,8.70
2013,05,04,00,19,8.70
2013,05,04,00,20,8.80
2013,05,04,00,21,8.70
2013,05,04,00,22,8.80
2013,05,04,00,23,8.80
2013,05,04,00,24,8.80
2013,05,04,00,25,8.80
2013,05,04,00,26,8.80
2013,05,04,00,27,8.80
2013,05,04,00,28,8.70
2013,05,04,00,29,8.70
2013,05,04,00,30,8.70
2013,05,04,00,31,8.70
2013,05,04,00,32,8.70
2013,05,04,00,33,8.70
2013,05,04,00,34,8.70
2013,05,04,00,35,8.70
2013,05,04,00,36,8.70
2013,05,04,00,37,8.70
2013,05,04,00,38,8.70
2013,05,04,00,39,8.70
2013,05,04,00,40,8.70
2013,05,04,00,41,8.70
2013,05,04,00,42,8.70
2013,05,04,00,43,8.70
2013,05,04,00,44,8.70
2013,05,04,00,45,8.70
2013,05,04,00,46,8.70
2013,05,04,00,47,8.70
2013,05,04,00,48,8.70
2013,05,04,00,49,8.70
2013,05,04,00,50,8.70
2013,05,04,00,51,8.70
2013,05,04,00,52,8.70
2013,05,04,00,53,8.70
2013,05,04,00,54,8.70
2013,05,04,00,55,8.70
2013,05,04,00,56,8.70
2013,05,04,00,57,8.70
2013,05,04,00,58,8.80
2013,05,04,00,59,8.80
2013,05,04,01,00,8.80
2013,05,04,01,01,8.80
2013,05,04,01,02,8.80
2013,05,04,01,03,8.80
2013,05,04,01,04,8.80
2013,05,04,01,05,8.80
2013,05,04,01,06,8.90
2013,05,04,01,07,8.90
2013,05,04,01,08,8.90
2013,05,04,01,09,8.90
2013,05,04,01,10,8.90
2013,05,04,01,11,8.90
2013,05,04,01,12,8.90
2013,05,04,01,13,8.90
2013,05,04,01,14,8.90
2013,05,04,01,15,8.90
2013,05,04,01,16,8.90
2013,05,04,01,17,8.90
2013,05,04,01,18,8.80
2013,05,04,01,19,8.80
2013,05,04,01,20,8.80
2013,05,04,01,21,8.80
2013,05,04,01,22,8.80
2013,05,04,01,23,8.80
2013,05,04,01,24,8.70
2013,05,04,01,25,8.70
2013,05,04,01,26,8.70
2013,05,04,01,27,8.70
2013,05,04,01,28,8.70
2013,05,04,01,29,8.70
2013,05,04,01,30,8.60
2013,05,04,01,31,8.60
2013,05,04,01,32,8.60
2013,05,04,01,33,8.60
2013,05,04,01,34,8.60
2013,05,04,01,35,8.50
2013,05,04,01,36,8.50
2013,05,04,01,37,8.50
2013,05,04,01,38,8.50
2013,05,04,01,39,8.60
2013,05,04,01,40,8.60
2013,05,04,01,41,8.60
2013,05,04,01,42,8.60
2013,05,04,01,43,8.60
2013,05,04,01,44,8.60
2013,05,04,01,45,8.60
2013,05,04,01,46,8.60
2013,05,04,01,47,8.60
2013,05,04,01,48,8.60
2013,05,04,01,49,8.60
2013,05,04,01,50,8.60
2013,05,04,01,51,8.60
2013,05,04,01,52,8.60
2013,05,04,01,53,8.60
2013,05,04,01,54,8.60
2013,05,04,01,55,8.60
2013,05,04,01,56,8.60
2013,05,04,01,57,8.50
2013,05,04,01,58,8.50
2013,05,04,01,59,8.50
2013,05,04,02,00,8.50
2013,05,04,02,01,8.50
2013,05,04,02,02,8.50
2013,05,04,02,03,8.50
2013,05,04,02,04,8.40
2013,05,04,02,05,8.40
2013,05,04,02,06,8.40
2013,05,04,02,07,8.40
2013,05,04,02,08,8.30
2013,05,04,02,09,8.30
2013,05,04,02,10,8.30
2013,05,04,02,11,8.30
2013,05,04,02,12,8.30
2013,05,04,02,13,8.30
2013,05,04,02,14,8.30
2013,05,04,02,15,8.30
2013,05,04,02,16,8.30
2013,05,04,02,17,8.30
2013,05,04,02,18,8.30
2013,05,04,02,19,8.30
2013,05,04,02,20,8.30
2013,05,04,02,21,8.30
2013,05,04,02,22,8.30
2013,05,04,02,23,8.30
2013,05,04,02,24,8.30
2013,05,04,02,25,8.30
2013,05,04,02,26,8.30
2013,05,04,02,27,8.30
2013,05,04,02,28,8.30
2013,05,04,02,29,8.30
2013,05,04,02,30,8.30
2013,05,04,02,31,8.30
2013,05,04,02,32,8.20
2013,05,04,02,33,8.20
2013,05,04,02,34,8.20
2013,05,04,02,35,8.20
2013,05,04,02,36,8.20
2013,05,04,02,37,8.20
2013,05,04,02,38,8.20
2013,05,04,02,39,8.20
2013,05,04,02,40,8.10
2013,05,04,02,41,8.10
2013,05,04,02,42,8.10
2013,05,04,02,43,8.10
2013,05,04,02,44,8.10
2013,05,04,02,45,8.10
2013,05,04,02,46,8.10
2013,05,04,02,47,8.10
2013,05,04,02,48,8.10
2013,05,04,02,49,8.10
2013,05,04,02,50,8.10
2013,05,04,02,51,8.10
2013,05,04,02,52,8.10
2013,05,04,02,53,8.10
2013,05,04,02,54,8.10
2013,05,04,02,55,8.10
2013,05,04,02,56,8.10
2013,05,04,02,57,8.10
2013,05,04,02,58,8.10
2013,05,04,02,59,8.10
2013,05,04,03,00,8.10
2013,05,04,03,01,8.10
2013,05,04,03,02,8.10
2013,05,04,03,03,8.10
2013,05,04,03,04,8.10
2013,05,04,03,05,8.10
2013,05,04,03,06,8.10
2013,05,04,03,07,8.00
2013,05,04,03,08,8.00
2013,05,04,03,09,8.00
2013,05,04,03,10,8.00
2013,05,04,03,11,7.90
2013,05,04,03,12,8.00
2013,05,04,03,13,8.00
2013,05,04,03,14,8.00
2013,05,04,03,15,8.00
2013,05,04,03,16,8.00
2013,05,04,03,17,8.00
2013,05,04,03,18,8.00
2013,05,04,03,19,8.00
2013,05,04,03,20,8.00
2013,05,04,03,21,8.00
2013,05,04,03,22,8.00
2013,05,04,03,23,8.00
2013,05,04,03,24,8.00
2013,05,04,03,25,8.00
2013,05,04,03,26,8.00
2013,05,04,03,27,8.10
2013,05,04,03,28,8.10
2013,05,04,03,29,8.10
2013,05,04,03,30,8.10
2013,05,04,03,31,8.10
2013,05,04,03,32,8.10
2013,05,04,03,33,8.10
2013,05,04,03,34,8.10
2013,05,04,03,35,8.10
2013,05,04,03,36,8.10
2013,05,04,03,37,8.10
2013,05,04,03,38,8.10
2013,05,04,03,39,8.10
2013,05,04,03,40,8.10
2013,05,04,03,41,8.10
2013,05,04,03,42,8.10
2013,05,04,03,43,8.10
2013,05,04,03,44,8.10
2013,05,04,03,45,8.10
2013,05,04,03,46,8.10
2013,05,04,03,47,8.10
2013,05,04,03,48,8.10
2013,05,04,03,49,8.10
2013,05,04,03,50,8.00
2013,05,04,03,51,8.00
2013,05,04,03,52,8.00
2013,05,04,03,53,8.10
2013,05,04,03,54,8.00
2013,05,04,03,55,8.00
2013,05,04,03,56,8.00
2013,05,04,03,57,8.00
2013,05,04,03,58,8.00
2013,05,04,03,59,8.00
2013,05,04,04,00,8.00
2013,05,04,04,01,8.00
2013,05,04,04,02,8.00
2013,05,04,04,03,8.00
2013,05,04,04,04,7.90
2013,05,04,04,05,7.90
2013,05,04,04,06,7.90
2013,05,04,04,07,7.90
2013,05,04,04,08,7.90
2013,05,04,04,09,7.90
2013,05,04,04,10,7.90
2013,05,04,04,11,7.90
2013,05,04,04,12,7.90
2013,05,04,04,13,7.90
2013,05,04,04,14,7.80
2013,05,04,04,15,7.80
2013,05,04,04,16,7.80
2013,05,04,04,17,7.80
2013,05,04,04,18,7.80
2013,05,04,04,19,7.80
2013,05,04,04,20,7.70
2013,05,04,04,21,7.70
2013,05,04,04,22,7.70
2013,05,04,04,23,7.70
2013,05,04,04,24,7.70
2013,05,04,04,25,7.70
2013,05,04,04,26,7.70
2013,05,04,04,27,7.70
2013,05,04,04,28,7.70
2013,05,04,04,29,7.70
2013,05,04,04,30,7.70
2013,05,04,04,31,7.70
2013,05,04,04,32,7.70
2013,05,04,04,33,7.70
2013,05,04,04,34,7.70
2013,05,04,04,35,7.70
2013,05,04,04,36,7.70
2013,05,04,04,37,7.70
2013,05,04,04,38,7.70
2013,05,04,04,39,7.70
2013,05,04,04,40,7.70
2013,05,04,04,41,7.70
2013,05,04,04,42,7.70
2013,05,04,04,43,7.70
2013,05,04,04,44,7.70
2013,05,04,04,45,7.70
2013,05,04,04,46,7.60
2013,05,04,04,47,7.60
2013,05,04,04,48,7.60
2013,05,04,04,49,7.60
2013,05,04,04,50,7.60
2013,05,04,04,51,7.60
2013,05,04,04,52,7.60
2013,05,04,04,53,7.60
2013,05,04,04,54,7.50
2013,05,04,04,55,7.50
2013,05,04,04,56,7.50
2013,05,04,04,57,7.50
2013,05,04,04,58,7.50
2013,05,04,04,59,7.50
2013,05,04,05,00,7.50
2013,05,04,05,01,7.50
2013,05,04,05,02,7.50
2013,05,04,05,03,7.50
2013,05,04,05,04,7.50
2013,05,04,05,05,7.50
2013,05,04,05,06,7.40
2013,05,04,05,07,7.50
2013,05,04,05,08,7.50
2013,05,04,05,09,7.50
2013,05,04,05,10,7.50
2013,05,04,05,11,7.50
2013,05,04,05,12,7.50
2013,05,04,05,13,7.50
2013,05,04,05,14,7.50
2013,05,04,05,15,7.50
2013,05,04,05,16,7.50
2013,05,04,05,17,7.50
2013,05,04,05,18,7.50
2013,05,04,05,19,7.50
2013,05,04,05,20,7.50
2013,05,04,05,21,7.50
2013,05,04,05,22,7.40
2013,05,04,05,23,7.40
2013,05,04,05,24,7.40
2013,05,04,05,25,7.40
2013,05,04,05,26,7.40
2013,05,04,05,27,7.40
2013,05,04,05,28,7.30
2013,05,04,05,29,7.30
2013,05,04,05,30,7.30
2013,05,04,05,31,7.30
2013,05,04,05,32,7.30
2013,05,04,05,33,7.30
2013,05,04,05,34,7.30
2013,05,04,05,35,7.30
2013,05,04,05,36,7.30
2013,05,04,05,37,7.30
2013,05,04,05,38,7.30
2013,05,04,05,39,7.30
2013,05,04,05,40,7.30
2013,05,04,05,41,7.30
2013,05,04,05,42,7.30
2013,05,04,05,43,7.20
2013,05,04,05,44,7.20
2013,05,04,05,45,7.30
2013,05,04,05,46,7.30
2013,05,04,05,47,7.30
2013,05,04,05,48,7.30
2013,05,04,05,49,7.30
2013,05,04,05,50,7.30
2013,05,04,05,51,7.30
2013,05,04,05,52,7.30
2013,05,04,05,53,7.30
2013,05,04,05,54,7.30
2013,05,04,05,55,7.30
2013,05,04,05,56,7.30
2013,05,04,05,57,7.30
2013,05,04,05,58,7.30
2013,05,04,05,59,7.30
2013,05,04,06,00,7.30
2013,05,04,06,01,7.30
2013,05,04,06,02,7.30
2013,05,04,06,03,7.20
2013,05,04,06,04,7.20
2013,05,04,06,05,7.20
2013,05,04,06,06,7.20
2013,05,04,06,07,7.20
2013,05,04,06,08,7.20
2013,05,04,06,09,7.20
2013,05,04,06,10,7.10
2013,05,04,06,11,7.10
2013,05,04,06,12,7.10
2013,05,04,06,13,7.10
2013,05,04,06,14,7.10
2013,05,04,06,15,7.10
2013,05,04,06,16,7.00
2013,05,04,06,17,7.00
2013,05,04,06,18,7.00
2013,05,04,06,19,7.00
2013,05,04,06,20,7.00
2013,05,04,06,21,7.10
2013,05,04,06,22,7.10
2013,05,04,06,23,7.10
2013,05,04,06,24,7.20
2013,05,04,06,25,7.20
2013,05,04,06,26,7.20
2013,05,04,06,27,7.20
2013,05,04,06,28,7.20
2013,05,04,06,29,7.20
2013,05,04,06,30,7.20
2013,05,04,06,31,7.30
2013,05,04,06,32,7.30
2013,05,04,06,33,7.30
2013,05,04,06,34,7.40
2013,05,04,06,35,7.40
2013,05,04,06,36,7.50
2013,05,04,06,37,7.50
2013,05,04,06,38,7.50
2013,05,04,06,39,7.60
2013,05,04,06,40,7.70
2013,05,04,06,41,7.80
2013,05,04,06,42,7.80
2013,05,04,06,43,7.90
2013,05,04,06,44,7.90
2013,05,04,06,45,8.00
2013,05,04,06,46,8.00
2013,05,04,06,47,8.10
2013,05,04,06,48,8.10
2013,05,04,06,49,8.10
2013,05,04,06,50,8.20
2013,05,04,06,51,8.20
2013,05,04,06,52,8.20
2013,05,04,06,53,8.20
2013,05,04,06,54,8.20
2013,05,04,06,55,8.30
2013,05,04,06,56,8.30
2013,05,04,06,57,8.30
2013,05,04,06,58,8.40
2013,05,04,06,59,8.40
2013,05,04,07,00,8.50
2013,05,04,07,01,8.60
2013,05,04,07,02,8.70
2013,05,04,07,03,8.70
2013,05,04,07,04,8.80
2013,05,04,07,05,8.90
2013,05,04,07,06,9.00
2013,05,04,07,07,9.10
2013,05,04,07,08,9.20
2013,05,04,07,09,9.20
2013,05,04,07,10,9.30
2013,05,04,07,11,9.40
2013,05,04,07,12,9.50
2013,05,04,07,13,9.50
2013,05,04,07,14,9.60
2013,05,04,07,15,9.70
2013,05,04,07,16,9.80
2013,05,04,07,17,9.90
2013,05,04,07,18,9.90
2013,05,04,07,19,10.00
2013,05,04,07,20,10.10
2013,05,04,07,21,10.10
2013,05,04,07,22,10.20
2013,05,04,07,23,10.30
2013,05,04,07,24,10.40
2013,05,04,07,25,10.50
2013,05,04,07,26,10.50
2013,05,04,07,27,10.60
2013,05,04,07,28,10.60
2013,05,04,07,29,10.70
2013,05,04,07,30,10.80
2013,05,04,07,31,10.80
2013,05,04,07,32,10.80
2013,05,04,07,33,10.90
2013,05,04,07,34,10.90
2013,05,04,07,35,10.90
2013,05,04,07,36,10.90
2013,05,04,07,37,10.90
2013,05,04,07,38,11.00
2013,05,04,07,39,11.00
2013,05,04,07,40,11.10
2013,05,04,07,41,11.20
2013,05,04,07,42,11.20
2013,05,04,07,43,11.30
2013,05,04,07,44,11.30
2013,05,04,07,45,11.20
2013,05,04,07,46,11.20
2013,05,04,07,47,11.20
2013,05,04,07,48,11.20
2013,05,04,07,49,11.20
2013,05,04,07,50,11.20
2013,05,04,07,51,11.20
2013,05,04,07,52,11.20
2013,05,04,07,53,11.20
2013,05,04,07,54,11.20
2013,05,04,07,55,11.30
2013,05,04,07,56,11.30
2013,05,04,07,57,11.40
2013,05,04,07,58,11.60
2013,05,04,07,59,11.70
2013,05,04,08,00,11.90
2013,05,04,08,01,12.00
2013,05,04,08,02,12.20
2013,05,04,08,03,12.30
2013,05,04,08,04,12.40
2013,05,04,08,05,12.50
2013,05,04,08,06,12.60
2013,05,04,08,07,12.70
2013,05,04,08,08,12.80
2013,05,04,08,09,13.00
2013,05,04,08,10,13.10
2013,05,04,08,11,13.20
2013,05,04,08,12,13.30
2013,05,04,08,13,13.30
2013,05,04,08,14,13.40
2013,05,04,08,15,13.40
2013,05,04,08,16,13.40
2013,05,04,08,17,13.40
2013,05,04,08,18,13.40
2013,05,04,08,19,13.50
2013,05,04,08,20,13.50
2013,05,04,08,21,13.60
2013,05,04,08,22,13.60
2013,05,04,08,23,13.70
2013,05,04,08,24,13.70
2013,05,04,08,25,13.80
2013,05,04,08,26,13.80
2013,05,04,08,27,13.90
2013,05,04,08,28,13.90
2013,05,04,08,29,13.90
2013,05,04,08,30,13.90
2013,05,04,08,31,14.00
2013,05,04,08,32,14.00
2013,05,04,08,33,14.00
2013,05,04,08,34,14.10
2013,05,04,08,35,14.10
2013,05,04,08,36,14.00
2013,05,04,08,37,14.00
2013,05,04,08,38,14.00
2013,05,04,08,39,14.00
2013,05,04,08,40,14.00
2013,05,04,08,41,14.00
2013,05,04,08,42,14.10
2013,05,04,08,43,14.10
2013,05,04,08,44,14.20
2013,05,04,08,45,14.20
2013,05,04,08,46,14.30
2013,05,04,08,47,14.30
2013,05,04,08,48,14.30
2013,05,04,08,49,14.30
2013,05,04,08,50,14.30
2013,05,04,08,51,14.30
2013,05,04,08,52,14.30
2013,05,04,08,53,14.30
2013,05,04,08,54,14.40
2013,05,04,08,55,14.40
2013,05,04,08,56,14.40
2013,05,04,08,57,14.50
2013,05,04,08,58,14.50
2013,05,04,08,59,14.50
2013,05,04,09,00,14.60
2013,05,04,09,01,14.60
2013,05,04,09,02,14.60
2013,05,04,09,03,14.60
2013,05,04,09,04,14.70
2013,05,04,09,05,14.70
2013,05,04,09,06,14.70
2013,05,04,09,07,14.80
2013,05,04,09,08,14.90
2013,05,04,09,09,14.90
2013,05,04,09,10,15.00
2013,05,04,09,11,15.10
2013,05,04,09,12,15.10
2013,05,04,09,13,15.10
2013,05,04,09,14,15.10
2013,05,04,09,15,15.20
2013,05,04,09,16,15.20
2013,05,04,09,17,15.30
2013,05,04,09,18,15.30
2013,05,04,09,19,15.30
2013,05,04,09,20,15.40
2013,05,04,09,21,15.40
2013,05,04,09,22,15.40
2013,05,04,09,23,15.30
2013,05,04,09,24,15.30
2013,05,04,09,25,15.40
2013,05,04,09,26,15.40
2013,05,04,09,27,15.40
2013,05,04,09,28,15.40
2013,05,04,09,29,15.50
2013,05,04,09,30,15.50
2013,05,04,09,31,15.50
2013,05,04,09,32,15.50
2013,05,04,09,33,15.50
2013,05,04,09,34,15.50
2013,05,04,09,35,15.50
2013,05,04,09,36,15.50
2013,05,04,09,37,15.60
2013,05,04,09,38,15.60
2013,05,04,09,39,15.60
2013,05,04,09,40,15.60
2013,05,04,09,41,15.70
2013,05,04,09,42,15.70
2013,05,04,09,43,15.70
2013,05,04,09,44,15.70
2013,05,04,09,45,15.70
2013,05,04,09,46,15.70
2013,05,04,09,47,15.70
2013,05,04,09,48,15.70
2013,05,04,09,49,15.80
2013,05,04,09,50,15.80
2013,05,04,09,51,15.80
2013,05,04,09,52,15.80
2013,05,04,09,53,15.80
2013,05,04,09,54,15.80
2013,05,04,09,55,16.10
2013,05,04,09,56,16.20
2013,05,04,09,57,16.20
2013,05,04,09,58,16.30
2013,05,04,09,59,16.40
2013,05,04,10,00,16.50
2013,05,04,10,01,16.60
2013,05,04,10,02,16.70
2013,05,04,10,03,16.70
2013,05,04,10,04,16.70
2013,05,04,10,05,16.80
2013,05,04,10,06,16.80
2013,05,04,10,07,16.90
2013,05,04,10,08,16.90
2013,05,04,10,09,16.90
2013,05,04,10,10,16.90
2013,05,04,10,11,16.90
2013,05,04,10,12,16.90
2013,05,04,10,13,17.00
2013,05,04,10,14,17.10
2013,05,04,10,15,17.10
2013,05,04,10,16,17.10
2013,05,04,10,17,17.20
2013,05,04,10,18,17.20
2013,05,04,10,19,17.20
2013,05,04,10,20,17.20
2013,05,04,10,21,17.30
2013,05,04,10,22,17.30
2013,05,04,10,23,17.30
2013,05,04,10,24,17.30
2013,05,04,10,25,17.30
2013,05,04,10,26,17.30
2013,05,04,10,27,17.30
2013,05,04,10,28,17.30
2013,05,04,10,29,17.30
2013,05,04,10,30,17.30
2013,05,04,10,31,17.30
2013,05,04,10,32,17.30
2013,05,04,10,33,17.30
2013,05,04,10,34,17.30
2013,05,04,10,35,17.30
2013,05,04,10,36,17.40
2013,05,04,10,37,17.50
2013,05,04,10,38,17.60
2013,05,04,10,39,17.70
2013,05,04,10,40,17.80
2013,05,04,10,41,17.80
2013,05,04,10,42,17.90
2013,05,04,10,43,17.90
2013,05,04,10,44,18.00
2013,05,04,10,45,18.00
2013,05,04,10,46,18.00
2013,05,04,10,47,18.10
2013,05,04,10,48,18.10
2013,05,04,10,49,18.20
2013,05,04,10,50,18.30
2013,05,04,10,51,18.30
2013,05,04,10,52,18.30
2013,05,04,10,53,18.30
2013,05,04,10,54,18.40
2013,05,04,10,55,18.40
2013,05,04,10,56,18.50
2013,05,04,10,57,18.50
2013,05,04,10,58,18.50
2013,05,04,10,59,18.50
2013,05,04,11,00,18.50
2013,05,04,11,01,18.50
2013,05,04,11,02,18.60
2013,05,04,11,03,18.70
2013,05,04,11,04,18.70
2013,05,04,11,05,18.80
2013,05,04,11,06,18.80
2013,05,04,11,07,18.80
2013,05,04,11,08,18.60
2013,05,04,11,09,18.50
2013,05,04,11,10,18.50
2013,05,04,11,11,18.50
2013,05,04,11,12,18.50
2013,05,04,11,13,18.50
2013,05,04,11,14,18.60
2013,05,04,11,15,18.60
2013,05,04,11,16,18.60
2013,05,04,11,17,18.60
2013,05,04,11,18,18.70
2013,05,04,11,19,18.60
2013,05,04,11,20,18.60
2013,05,04,11,21,18.60
2013,05,04,11,22,18.60
2013,05,04,11,23,18.70
2013,05,04,11,24,18.70
2013,05,04,11,25,18.70
2013,05,04,11,26,18.80
2013,05,04,11,27,18.80
2013,05,04,11,28,18.80
2013,05,04,11,29,18.80
2013,05,04,11,30,18.80
2013,05,04,11,31,18.70
2013,05,04,11,32,18.70
2013,05,04,11,33,18.70
2013,05,04,11,34,18.70
2013,05,04,11,35,18.70
2013,05,04,11,36,18.60
2013,05,04,11,37,18.70
2013,05,04,11,38,18.70
2013,05,04,11,39,18.70
2013,05,04,11,40,18.80
2013,05,04,11,41,18.90
2013,05,04,11,42,19.00
2013,05,04,11,43,19.00
2013,05,04,11,44,19.10
2013,05,04,11,45,19.10
2013,05,04,11,46,19.20
2013,05,04,11,47,19.30
2013,05,04,11,48,19.40
2013,05,04,11,49,19.50
2013,05,04,11,50,19.50
2013,05,04,11,51,19.60
2013,05,04,11,52,19.70
2013,05,04,11,53,19.70
2013,05,04,11,54,19.80
2013,05,04,11,55,19.80
2013,05,04,11,56,19.90
2013,05,04,11,57,20.00
2013,05,04,11,58,20.10
2013,05,04,11,59,20.20
2013,05,04,12,00,20.30
2013,05,04,12,01,20.50
2013,05,04,12,02,20.70
2013,05,04,12,03,20.80
2013,05,04,12,04,20.90
2013,05,04,12,05,21.10
2013,05,04,12,06,21.20
2013,05,04,12,07,21.40
2013,05,04,12,08,21.50
2013,05,04,12,09,21.70
2013,05,04,12,10,21.80
2013,05,04,12,11,21.90
2013,05,04,12,12,22.00
2013,05,04,12,13,22.10
2013,05,04,12,14,22.10
2013,05,04,12,15,22.20
2013,05,04,12,16,22.20
2013,05,04,12,17,22.30
2013,05,04,12,18,22.30
2013,05,04,12,19,22.40
2013,05,04,12,20,22.50
2013,05,04,12,21,22.50
2013,05,04,12,22,22.50
2013,05,04,12,23,22.50
2013,05,04,12,24,22.50
2013,05,04,12,25,22.50
2013,05,04,12,26,22.50
2013,05,04,12,27,22.50
2013,05,04,12,28,22.50
2013,05,04,12,29,22.40
2013,05,04,12,30,22.40
2013,05,04,12,31,22.40
2013,05,04,12,32,22.50
2013,05,04,12,33,22.50
2013,05,04,12,34,22.50
2013,05,04,12,35,22.60
2013,05,04,12,36,22.50
2013,05,04,12,37,22.60
2013,05,04,12,38,22.60
2013,05,04,12,39,22.70
2013,05,04,12,40,22.80
2013,05,04,12,41,22.80
2013,05,04,12,42,22.90
2013,05,04,12,43,23.00
2013,05,04,12,44,23.00
2013,05,04,12,45,23.00
2013,05,04,12,46,22.90
2013,05,04,12,47,22.90
2013,05,04,12,48,22.90
2013,05,04,12,49,22.90
2013,05,04,12,50,22.90
2013,05,04,12,51,22.80
2013,05,04,12,52,22.80
2013,05,04,12,53,22.80
2013,05,04,12,54,22.80
2013,05,04,12,55,22.80
2013,05,04,12,56,22.80
2013,05,04,12,57,22.80
2013,05,04,12,58,22.80
2013,05,04,12,59,22.80
2013,05,04,13,00,22.80
2013,05,04,13,01,22.80
2013,05,04,13,02,22.80
2013,05,04,13,03,22.80
2013,05,04,13,04,22.80
2013,05,04,13,05,22.90
2013,05,04,13,06,22.90
2013,05,04,13,07,23.00
2013,05,04,13,08,23.00
2013,05,04,13,09,23.00
2013,05,04,13,10,23.00
2013,05,04,13,11,23.00
2013,05,04,13,12,23.10
2013,05,04,13,13,23.10
2013,05,04,13,14,23.20
2013,05,04,13,15,23.20
2013,05,04,13,16,23.20
2013,05,04,13,17,23.30
2013,05,04,13,18,23.30
2013,05,04,13,19,23.20
2013,05,04,13,20,23.10
2013,05,04,13,21,23.10
2013,05,04,13,22,23.00
2013,05,04,13,23,23.00
2013,05,04,13,24,22.90
2013,05,04,13,25,22.90
2013,05,04,13,26,23.00
2013,05,04,13,27,23.10
2013,05,04,13,28,23.20
2013,05,04,13,29,23.20
2013,05,04,13,30,23.10
2013,05,04,13,31,23.10
2013,05,04,13,32,23.00
2013,05,04,13,33,23.00
2013,05,04,13,34,23.10
2013,05,04,13,35,23.10
2013,05,04,13,36,23.10
2013,05,04,13,37,23.20
2013,05,04,13,38,23.20
2013,05,04,13,39,23.30
2013,05,04,13,40,23.50
2013,05,04,13,41,23.60
2013,05,04,13,42,23.60
2013,05,04,13,43,23.60
2013,05,04,13,44,23.50
2013,05,04,13,45,23.40
2013,05,04,13,46,23.40
2013,05,04,13,47,23.40
2013,05,04,13,48,23.40
2013,05,04,13,49,23.40
2013,05,04,13,50,23.40
2013,05,04,13,51,23.40
2013,05,04,13,52,23.30
2013,05,04,13,53,23.40
2013,05,04,13,54,23.40
2013,05,04,13,55,23.40
2013,05,04,13,56,23.40
2013,05,04,13,57,23.40
2013,05,04,13,58,23.50
2013,05,04,13,59,23.50
2013,05,04,14,00,23.50
2013,05,04,14,01,23.40
2013,05,04,14,02,23.40
2013,05,04,14,03,23.30
2013,05,04,14,04,23.30
2013,05,04,14,05,23.30
2013,05,04,14,06,23.30
2013,05,04,14,07,23.40
2013,05,04,14,08,23.30
2013,05,04,14,09,23.30
2013,05,04,14,10,23.30
2013,05,04,14,11,23.30
2013,05,04,14,12,23.30
2013,05,04,14,13,23.30
2013,05,04,14,14,23.30
2013,05,04,14,15,23.30
2013,05,04,14,16,23.30
2013,05,04,14,17,23.40
2013,05,04,14,18,23.40
2013,05,04,14,19,23.40
2013,05,04,14,20,23.40
2013,05,04,14,21,23.40
2013,05,04,14,22,23.40
2013,05,04,14,23,23.50
2013,05,04,14,24,23.50
2013,05,04,14,25,23.50
2013,05,04,14,26,23.50
2013,05,04,14,27,23.40
2013,05,04,14,28,23.40
2013,05,04,14,29,23.50
2013,05,04,14,30,23.50
2013,05,04,14,31,23.60
2013,05,04,14,32,23.60
2013,05,04,14,33,23.60
2013,05,04,14,34,23.60
2013,05,04,14,35,23.60
2013,05,04,14,36,23.40
2013,05,04,14,37,23.30
2013,05,04,14,38,23.20
2013,05,04,14,39,23.20
2013,05,04,14,40,23.10
2013,05,04,14,41,23.10
2013,05,04,14,42,23.00
2013,05,04,14,43,22.90
2013,05,04,14,44,22.80
2013,05,04,14,45,22.70
2013,05,04,14,46,22.70
2013,05,04,14,47,22.70
2013,05,04,14,48,22.80
2013,05,04,14,49,22.80
2013,05,04,14,50,22.80
2013,05,04,14,51,22.80
2013,05,04,14,52,22.90
2013,05,04,14,53,22.90
2013,05,04,14,54,22.90
2013,05,04,14,55,22.90
2013,05,04,14,56,22.90
2013,05,04,14,57,22.90
2013,05,04,14,58,22.80
2013,05,04,14,59,22.80
2013,05,04,15,00,22.80
2013,05,04,15,01,22.80
2013,05,04,15,02,22.90
2013,05,04,15,03,22.90
2013,05,04,15,04,22.90
2013,05,04,15,05,22.90
2013,05,04,15,06,22.90
2013,05,04,15,07,22.90
2013,05,04,15,08,22.90
2013,05,04,15,09,22.90
2013,05,04,15,10,22.90
2013,05,04,15,11,23.00
2013,05,04,15,12,23.00
2013,05,04,15,13,23.00
2013,05,04,15,14,22.90
2013,05,04,15,15,22.90
2013,05,04,15,16,23.00
2013,05,04,15,17,23.00
2013,05,04,15,18,23.00
2013,05,04,15,19,23.00
2013,05,04,15,20,23.00
2013,05,04,15,21,23.10
2013,05,04,15,22,23.10
2013,05,04,15,23,23.10
2013,05,04,15,24,23.20
2013,05,04,15,25,23.20
2013,05,04,15,26,23.20
2013,05,04,15,27,23.30
2013,05,04,15,28,23.30
2013,05,04,15,29,23.30
2013,05,04,15,30,23.30
2013,05,04,15,31,23.30
2013,05,04,15,32,23.30
2013,05,04,15,33,23.30
2013,05,04,15,34,23.30
2013,05,04,15,35,23.40
2013,05,04,15,36,23.40
2013,05,04,15,37,23.40
2013,05,04,15,38,23.50
2013,05,04,15,39,23.50
2013,05,04,15,40,23.50
2013,05,04,15,41,23.50
2013,05,04,15,42,23.40
2013,05,04,15,43,23.40
2013,05,04,15,44,23.40
2013,05,04,15,45,23.40
2013,05,04,15,46,23.50
2013,05,04,15,47,23.60
2013,05,04,15,48,23.60
2013,05,04,15,49,23.70
2013,05,04,15,50,23.70
2013,05,04,15,51,23.70
2013,05,04,15,52,23.60
2013,05,04,15,53,23.50
2013,05,04,15,54,23.50
2013,05,04,15,55,23.50
2013,05,04,15,56,23.60
2013,05,04,15,57,23.60
2013,05,04,15,58,23.60
2013,05,04,15,59,23.60
2013,05,04,16,00,23.60
2013,05,04,16,01,23.60
2013,05,04,16,02,23.60
2013,05,04,16,03,23.60
2013,05,04,16,04,23.60
2013,05,04,16,05,23.60
2013,05,04,16,06,23.60
2013,05,04,16,07,23.60
2013,05,04,16,08,23.60
2013,05,04,16,09,23.70
2013,05,04,16,10,23.70
2013,05,04,16,11,23.70
2013,05,04,16,12,23.70
2013,05,04,16,13,23.70
2013,05,04,16,14,23.70
2013,05,04,16,15,23.80
2013,05,04,16,16,23.90
2013,05,04,16,17,23.90
2013,05,04,16,18,24.00
2013,05,04,16,19,24.00
2013,05,04,16,20,24.10
2013,05,04,16,21,24.20
2013,05,04,16,22,24.20
2013,05,04,16,23,24.30
2013,05,04,16,24,24.40
2013,05,04,16,25,24.40
2013,05,04,16,26,24.40
2013,05,04,16,27,24.40
2013,05,04,16,28,24.30
2013,05,04,16,29,24.30
2013,05,04,16,30,24.20
2013,05,04,16,31,24.20
2013,05,04,16,32,24.30
2013,05,04,16,33,24.30
2013,05,04,16,34,24.30
2013,05,04,16,35,24.30
2013,05,04,16,36,24.20
2013,05,04,16,37,24.10
2013,05,04,16,38,24.10
2013,05,04,16,39,24.10
2013,05,04,16,40,24.00
2013,05,04,16,41,24.00
2013,05,04,16,42,24.00
2013,05,04,16,43,24.00
2013,05,04,16,44,23.90
2013,05,04,16,45,24.00
2013,05,04,16,46,24.00
2013,05,04,16,47,24.10
2013,05,04,16,48,24.10
2013,05,04,16,49,24.20
2013,05,04,16,50,24.30
2013,05,04,16,51,24.40
2013,05,04,16,52,24.40
2013,05,04,16,53,24.50
2013,05,04,16,54,24.50
2013,05,04,16,55,24.60
2013,05,04,16,56,24.60
2013,05,04,16,57,24.60
2013,05,04,16,58,24.50
2013,05,04,16,59,24.40
2013,05,04,17,00,24.30
2013,05,04,17,01,24.30
2013,05,04,17,02,24.20
2013,05,04,17,03,24.10
2013,05,04,17,04,24.10
2013,05,04,17,05,24.10
2013,05,04,17,06,24.10
2013,05,04,17,07,24.10
2013,05,04,17,08,24.10
2013,05,04,17,09,24.10
2013,05,04,17,10,24.10
2013,05,04,17,11,24.10
2013,05,04,17,12,24.10
2013,05,04,17,13,24.10
2013,05,04,17,14,24.10
2013,05,04,17,15,24.10
2013,05,04,17,16,24.10
2013,05,04,17,17,24.10
2013,05,04,17,18,24.10
2013,05,04,17,19,24.10
2013,05,04,17,20,24.20
2013,05,04,17,21,24.20
2013,05,04,17,22,24.30
2013,05,04,17,23,24.30
2013,05,04,17,24,24.30
2013,05,04,17,25,24.30
2013,05,04,17,26,24.20
2013,05,04,17,27,24.20
2013,05,04,17,28,24.10
2013,05,04,17,29,24.10
2013,05,04,17,30,24.10
2013,05,04,17,31,24.00
2013,05,04,17,32,24.00
2013,05,04,17,33,24.00
2013,05,04,17,34,24.00
2013,05,04,17,35,24.10
2013,05,04,17,36,24.10
2013,05,04,17,37,24.10
2013,05,04,17,38,24.10